| time (UTC) | temp F | wind direction | speed MPH | gust MPH | rain 1hr in | rain 24hr in | rain mn in | humidity % | barometer mb |
| 20260902044558 | 70 | 0 | 0.0 | 1.0 | 0.00 | 0.01 | 0.01 | 79 | 1013.4 |
| 20260902043106 | 70 | 0 | 0.0 | 1.0 | 0.00 | 0.01 | 0.01 | 80 | 1013.2 |
| 20260902041553 | 70 | 0 | 0.0 | 1.0 | 0.00 | 0.01 | 0.01 | 80 | 1012.9 |
| 20260902040053 | 71 | 0 | 0.0 | 1.0 | 0.00 | 0.01 | 0.01 | 80 | 1013.1 |
| 20260902034557 | 71 | 241 | 0.0 | 1.0 | 0.00 | 0.01 | 0.01 | 79 | 1012.8 |
| 20260902033059 | 72 | 0 | 0.0 | 0.0 | 0.00 | 0.01 | 0.01 | 76 | 1013.3 |
| 20260902031602 | 71 | 0 | 0.0 | 0.0 | 0.00 | 0.01 | 0.01 | 78 | 1013.7 |
| 20260902030050 | 72 | 0 | 0.0 | 0.0 | 0.00 | 0.01 | 0.01 | 80 | 1013.6 |
| 20260902024607 | 72 | 0 | 0.0 | 0.0 | 0.00 | 0.01 | 0.01 | 80 | 1013.3 |
| 20260902023057 | 73 | 0 | 0.0 | 0.0 | 0.00 | 0.01 | 0.01 | 79 | 1013.4 |
| 20260902021553 | 73 | 0 | 0.0 | 0.0 | 0.00 | 0.01 | 0.01 | 77 | 1013.2 |
| 20260902020109 | 74 | 0 | 0.0 | 0.0 | 0.00 | 0.01 | 0.01 | 78 | 1013.4 |
| 20260902014600 | 74 | 0 | 0.0 | 0.0 | 0.00 | 0.01 | 0.01 | 77 | 1013.3 |
| 20260902013048 | 75 | 0 | 0.0 | 0.0 | 0.00 | 0.01 | 0.01 | 75 | 1013.2 |
| 20260902011557 | 76 | 0 | 0.0 | 0.0 | 0.00 | 0.01 | 0.01 | 76 | 1013.1 |
| 20260902010055 | 77 | 0 | 0.0 | 0.0 | 0.00 | 0.01 | 0.01 | 74 | 1013.0 |
| 20260902004601 | 78 | 0 | 0.0 | 0.0 | 0.00 | 0.01 | 0.01 | 72 | 1012.8 |
| 20260902003104 | 79 | 0 | 0.0 | 0.0 | 0.00 | 0.01 | 0.01 | 71 | 1013.0 |
| 20260902001558 | 80 | 0 | 0.0 | 1.0 | 0.00 | 0.01 | 0.01 | 69 | 1013.0 |
| 20260902000049 | 80 | 241 | 0.0 | 0.0 | 0.00 | 0.01 | 0.01 | 67 | 1013.2 |
| 20260901234605 | 81 | 0 | 0.0 | 0.0 | 0.00 | 0.01 | 0.01 | 67 | 1013.3 |
| 20260901233057 | 81 | 0 | 0.0 | 0.0 | 0.00 | 0.01 | 0.01 | 64 | 1013.3 |
| 20260901231551 | 81 | 0 | 0.0 | 1.0 | 0.00 | 0.01 | 0.01 | 64 | 1013.3 |
| 20260901230058 | 82 | 0 | 0.0 | 1.0 | 0.00 | 0.01 | 0.01 | 63 | 1013.4 |
| 20260901224555 | 82 | 236 | 0.0 | 1.0 | 0.00 | 0.01 | 0.01 | 62 | 1013.3 |
| 20260901223100 | 83 | 236 | 0.0 | 1.0 | 0.00 | 0.01 | 0.01 | 59 | 1013.4 |
| 20260901221610 | 83 | 0 | 0.0 | 1.0 | 0.00 | 0.01 | 0.01 | 58 | 1013.3 |
| 20260901220105 | 83 | 0 | 0.0 | 1.0 | 0.00 | 0.01 | 0.01 | 60 | 1013.2 |
| 20260901214556 | 83 | 0 | 0.0 | 4.0 | 0.00 | 0.01 | 0.01 | 60 | 1013.2 |
| 20260901213103 | 83 | 228 | 0.0 | 4.0 | 0.00 | 0.01 | 0.01 | 61 | 1013.2 |
| 20260901211559 | 83 | 229 | 1.0 | 3.0 | 0.00 | 0.01 | 0.01 | 62 | 1013.2 |
| 20260901210057 | 83 | 204 | 2.0 | 3.0 | 0.00 | 0.01 | 0.01 | 59 | 1013.1 |
| 20260901204558 | 84 | 251 | 0.0 | 3.0 | 0.00 | 0.01 | 0.01 | 56 | 1013.2 |
| 20260901203102 | 85 | 248 | 1.0 | 3.0 | 0.00 | 0.01 | 0.01 | 55 | 1013.6 |
| 20260901201600 | 85 | 174 | 1.0 | 5.0 | 0.00 | 0.01 | 0.01 | 54 | 1013.6 |
| 20260901200056 | 85 | 67 | 1.0 | 3.0 | 0.00 | 0.01 | 0.01 | 52 | 1013.5 |
| 20260901194556 | 85 | 260 | 1.0 | 3.0 | 0.00 | 0.01 | 0.01 | 53 | 1013.8 |
| 20260901193105 | 85 | 260 | 0.0 | 2.0 | 0.00 | 0.01 | 0.01 | 51 | 1013.6 |
| 20260901191603 | 85 | 0 | 0.0 | 2.0 | 0.00 | 0.01 | 0.01 | 51 | 1014.0 |
| 20260901190055 | 85 | 304 | 1.0 | 3.0 | 0.00 | 0.01 | 0.01 | 51 | 1013.9 |
| 20260901184557 | 85 | 293 | 2.0 | 5.0 | 0.00 | 0.01 | 0.01 | 49 | 1013.9 |
| 20260901183056 | 85 | 333 | 1.0 | 4.0 | 0.00 | 0.01 | 0.01 | 49 | 1013.7 |
| 20260901181551 | 84 | 309 | 1.0 | 3.0 | 0.00 | 0.01 | 0.01 | 50 | 1014.0 |
| 20260901180055 | 84 | 334 | 1.0 | 3.0 | 0.00 | 0.01 | 0.01 | 51 | 1014.2 |
| 20260901174554 | 84 | 326 | 2.0 | 4.0 | 0.00 | 0.01 | 0.01 | 51 | 1014.4 |
| 20260901173051 | 84 | 313 | 3.0 | 4.0 | 0.00 | 0.01 | 0.01 | 51 | 1014.6 |
| 20260901171604 | 85 | 289 | 2.0 | 5.0 | 0.01 | 0.01 | 0.01 | 51 | 1014.7 |
| 20260901170051 | 84 | 10 | 2.0 | 5.0 | 0.01 | 0.01 | 0.01 | 50 | 1014.7 |
| 20260901164600 | 83 | 301 | 1.0 | 6.0 | 0.01 | 0.01 | 0.01 | 59 | 1014.8 |
| 20260901163101 | 82 | 251 | 1.0 | 3.0 | 0.01 | 0.01 | 0.01 | 60 | 1014.7 |
| 20260901161554 | 81 | 238 | 1.0 | 3.0 | 0.00 | 0.00 | 0.00 | 64 | 1014.9 |
| 20260901160100 | 80 | 283 | 1.0 | 4.0 | 0.00 | 0.00 | 0.00 | 66 | 1014.6 |
| 20260901154549 | 79 | 289 | 1.0 | 3.0 | 0.00 | 0.00 | 0.00 | 67 | 1014.6 |
| 20260901153057 | 78 | 333 | 0.0 | 1.0 | 0.00 | 0.00 | 0.00 | 69 | 1014.7 |
| 20260901151557 | 77 | 357 | 1.0 | 2.0 | 0.00 | 0.00 | 0.00 | 70 | 1014.7 |
| 20260901150049 | 75 | 297 | 1.0 | 3.0 | 0.00 | 0.00 | 0.00 | 73 | 1014.9 |
| 20260901144559 | 74 | 255 | 0.0 | 4.0 | 0.00 | 0.00 | 0.00 | 75 | 1015.1 |
| 20260901143059 | 73 | 260 | 0.0 | 3.0 | 0.00 | 0.00 | 0.00 | 78 | 1015.1 |
| 20260901141550 | 71 | 254 | 1.0 | 4.0 | 0.00 | 0.00 | 0.00 | 82 | 1015.2 |
| 20260901140056 | 68 | 241 | 0.0 | 1.0 | 0.00 | 0.00 | 0.00 | 87 | 1015.1 |
| 20260901134620 | 67 | 250 | 1.0 | 3.0 | 0.00 | 0.00 | 0.00 | 88 | 1015.2 |
| 20260901133056 | 67 | 225 | 1.0 | 4.0 | 0.00 | 0.00 | 0.00 | 89 | 1015.3 |
| 20260901131553 | 66 | 198 | 2.0 | 3.0 | 0.00 | 0.00 | 0.00 | 90 | 1015.1 |
| 20260901130100 | 65 | 181 | 1.0 | 2.0 | 0.00 | 0.00 | 0.00 | 91 | 1014.9 |
| 20260901124603 | 65 | 0 | 0.0 | 1.0 | 0.00 | 0.00 | 0.00 | 92 | 1014.9 |
| 20260901123055 | 64 | 0 | 0.0 | 1.0 | 0.00 | 0.00 | 0.00 | 92 | 1014.9 |
| 20260901121601 | 63 | 0 | 0.0 | 1.0 | 0.00 | 0.00 | 0.00 | 92 | 1014.7 |
| 20260901114557 | 63 | 0 | 0.0 | 1.0 | 0.00 | 0.00 | 0.00 | 92 | 1014.5 |
| 20260901113116 | 64 | 0 | 0.0 | 1.0 | 0.00 | 0.00 | 0.00 | 92 | 1014.3 |
| 20260901111601 | 63 | 0 | 0.0 | 1.0 | 0.00 | 0.00 | 0.00 | 92 | 1014.0 |
| 20260901110106 | 63 | 250 | 0.0 | 1.0 | 0.00 | 0.00 | 0.00 | 92 | 1014.1 |
| 20260901104602 | 63 | 0 | 0.0 | 2.0 | 0.00 | 0.00 | 0.00 | 92 | 1013.9 |
| 20260901103051 | 63 | 0 | 0.0 | 0.0 | 0.00 | 0.00 | 0.00 | 92 | 1013.8 |
| 20260901101613 | 64 | 0 | 0.0 | 0.0 | 0.00 | 0.00 | 0.00 | 92 | 1013.7 |
| 20260901100109 | 64 | 0 | 0.0 | 1.0 | 0.00 | 0.00 | 0.00 | 92 | 1013.7 |
| 20260901094558 | 64 | 0 | 0.0 | 1.0 | 0.00 | 0.00 | 0.00 | 92 | 1013.8 |
| 20260901093053 | 64 | 0 | 0.0 | 1.0 | 0.00 | 0.00 | 0.00 | 92 | 1013.7 |
| 20260901091547 | 64 | 0 | 0.0 | 1.0 | 0.00 | 0.00 | 0.00 | 91 | 1013.7 |
| 20260901090101 | 64 | 0 | 0.0 | 0.0 | 0.00 | 0.00 | 0.00 | 92 | 1013.6 |
| 20260901084600 | 64 | 0 | 0.0 | 0.0 | 0.00 | 0.00 | 0.00 | 91 | 1013.8 |
| 20260901083059 | 64 | 0 | 0.0 | 0.0 | 0.00 | 0.00 | 0.00 | 92 | 1013.6 |
| 20260901081607 | 65 | 0 | 0.0 | 0.0 | 0.00 | 0.00 | 0.00 | 92 | 1013.6 |
| 20260901080059 | 65 | 0 | 0.0 | 0.0 | 0.00 | 0.00 | 0.00 | 91 | 1013.6 |
| 20260901074554 | 65 | 0 | 0.0 | 1.0 | 0.00 | 0.00 | 0.00 | 91 | 1013.6 |
| 20260901073100 | 66 | 220 | 0.0 | 1.0 | 0.00 | 0.00 | 0.00 | 91 | 1013.7 |
| 20260901071558 | 66 | 0 | 0.0 | 0.0 | 0.00 | 0.00 | 0.00 | 91 | 1013.8 |
| 20260901064553 | 66 | 0 | 0.0 | 0.0 | 0.00 | 0.00 | 0.00 | 90 | 1014.1 |
| 20260901063050 | 67 | 0 | 0.0 | 0.0 | 0.00 | 0.00 | 0.00 | 89 | 1014.2 |
| 20260901061600 | 68 | 0 | 0.0 | 0.0 | 0.00 | 0.00 | 0.00 | 87 | 1014.3 |
| 20260901060057 | 68 | 0 | 0.0 | 0.0 | 0.00 | 0.00 | 0.00 | 87 | 1014.1 |
| 20260901054556 | 68 | 0 | 0.0 | 0.0 | 0.00 | 0.00 | 0.00 | 87 | 1014.0 |
| 20260901053114 | 69 | 0 | 0.0 | 0.0 | 0.00 | 0.00 | 0.00 | 85 | 1013.8 |
| 20260901051559 | 70 | 0 | 0.0 | 0.0 | 0.00 | 0.00 | 0.00 | 85 | 1013.6 |
| 20260901050056 | 69 | 0 | 0.0 | 0.0 | 0.00 | 0.00 | 0.00 | 85 | 1013.6 |